This is the latest recevied weather packets stored in our database for station/object YC0ACE-13. If no packets are shown the sender has not sent any weather packets the latest 10 day(s).
| Time | Temp. | Humidity | Pressure | Rain* | Wind** | Luminosity | Snow |
|---|---|---|---|---|---|---|---|
| 1777599025 | 27.78° C | 78% | 1016.9 hPa | 0 mm | - | 301 W/m² | - |
| 1777598725 | 27.78° C | 79% | 1016.9 hPa | 0 mm | - | 238 W/m² | - |
| 1777598425 | 27.22° C | 79% | 1017.3 hPa | 0 mm | - | 214 W/m² | - |
| 1777598125 | 27.22° C | 80% | 1016.9 hPa | 0 mm | - | 204 W/m² | - |
| 1777597825 | 27.22° C | 80% | 1016.9 hPa | 0 mm | - | 208 W/m² | - |
| 1777597526 | 27.22° C | 79% | 1017.3 hPa | 0 mm | - | 194 W/m² | - |
| 1777597225 | 27.22° C | 79% | 1016.9 hPa | 0 mm | - | 182 W/m² | - |
| 1777596927 | 27.22° C | 80% | 1017.3 hPa | 0 mm | - | 162 W/m² | - |
| 1777596625 | 27.22° C | 79% | 1016.9 hPa | 0 mm | - | 149 W/m² | - |
| 1777596325 | 27.22° C | 79% | 1016.9 hPa | 0 mm | - | 136 W/m² | - |
| 1777596024 | 26.67° C | 80% | 1016.9 hPa | 0 mm | - | 119 W/m² | - |
| 1777595724 | 26.67° C | 79% | 1016.6 hPa | 0 mm | - | 107 W/m² | - |
| 1777595425 | 26.67° C | 80% | 1016.9 hPa | 0 mm | - | 100 W/m² | - |
| 1777595125 | 26.67° C | 81% | 1016.6 hPa | 0 mm | - | 94 W/m² | - |
| 1777594824 | 26.67° C | 81% | 1016.6 hPa | 0 mm | - | 87 W/m² | - |
| 1777594525 | 26.67° C | 81% | 1016.6 hPa | 0 mm | - | 82 W/m² | - |
| 1777594225 | 26.67° C | 82% | 1016.6 hPa | 0 mm | - | 79 W/m² | - |
| 1777593927 | 26.67° C | 82% | 1016.3 hPa | 0 mm | - | 78 W/m² | - |
| 1777593625 | 26.67° C | 82% | 1016.3 hPa | 0 mm | - | 74 W/m² | - |
| 1777593325 | 26.11° C | 82% | 1016.3 hPa | 0 mm | - | 67 W/m² | - |
| 1777593024 | 26.11° C | 82% | 1015.9 hPa | 0 mm | - | 62 W/m² | - |
| 1777592724 | 26.11° C | 83% | 1016.3 hPa | 0 mm | - | 55 W/m² | - |
| 1777592425 | 26.11° C | 83% | 1016.3 hPa | 0 mm | - | 48 W/m² | - |
| 1777592124 | 26.11° C | 82% | 1015.9 hPa | 0 mm | - | 40 W/m² | - |
| 1777591825 | 26.11° C | 83% | 1015.9 hPa | 0 mm | - | 34 W/m² | - |
* Rain latest hour (hover to see other rain measurements)
** Current wind speed in m/s (hover to see current wind gust speed)